[ hide orbit diagram ]
For accurate long-term ephemerides, please instead use our Horizons system.This orbit viewer was implemented using two-body methods, and hence should not be used for determining accurate long-term trajectories (over several years or decades) or planetary encounter circumstances.
Orbital Elements at Epoch 2459000.5 (2020-May-31.0) TDB
Reference: JPL 40 (heliocentric ecliptic J2000)
Element | Value | Uncertainty (1-sigma) | Units |
e | .1120010757553237 | 3.1953e-08 | |
a | 3.211927027134851 | 1.3441e-08 | au |
q | 2.852187744848149 | 1.0282e-07 | au |
i | 15.82834788155932 | 4.6937e-06 | deg |
node | 348.4388194834164 | 1.3639e-05 | deg |
peri | 87.8562924655614 | 2.7654e-05 | deg |
M | 63.63290109638297 | 2.2074e-05 | deg |
tp | 2458628.856831108094 (2019-May-25.35683111) | 0.0001289 | TDB |
period | 2102.552901028919 5.76 | 1.3198e-05 3.613e-08 | d yr |
n | .1712204243821062 | 1.0748e-09 | deg/d |
Q | 3.571666309421553 | 1.4946e-08 | au |
|
| | Orbit Determination Parameters
Additional Information
|
[ show covariance matrix ]
Physical Parameter Table
Parameter |
Symbol |
Value |
Units |
Sigma |
Reference |
Notes |
absolute magnitude |
H |
10.1 |
|
n/a |
MPO431503 |
|
diameter |
diameter |
51.609 |
km |
0.389 |
urn:nasa:pds:neowise_diameters_albedos::2.0[mainbelt] (http://adsabs.harvard.edu/abs/2014ApJ...791..121M) |
|
rotation period |
rot_per |
7.3662 |
h |
n/a |
LCDB (Rev. 2020-October); Warner et al., 2009 |
Published Reference List: [Stephens, R.D. (2002) Minor Planet Bull. 29, 47-48.] [Alkema, M.S. (2013) Minor Planet Bull. 40, 133-137.] [Oey, J.; Williams, H.; Groom, R. (2017) Minor Planet Bull. 44, 200-204.] |
geometric albedo |
albedo |
0.098 |
|
0.018 |
urn:nasa:pds:neowise_diameters_albedos::2.0[mainbelt] (http://adsabs.harvard.edu/abs/2014ApJ...791..121M) |
|
SMASSII spectral type |
spec_B |
Xk |
|
n/a |
EAR-A-5-DDR-TAXONOMY-V4.0 |
based on a high-resolution spectrum by Xu et al. (1995) or Bus and Binzel (2002) |
|
973 Aralia (A922 FB) Discovered 1922-Mar-18 by Reinmuth, K. at Heidelberg |
Reference: DISCOVERY.DB | Last Updated: 2003-08-29 |
|
[ show close-approach data ]
|